{"data":{"norad_id":56770,"intl_designator":"2023-078D","name":"STARLINK-6342","alt_names":[],"object_type":"PAYLOAD","status":"ACTIVE","operator":null,"country":"US","launch_date":"2023-05-31","launch_site_code":"AFWTR","launch_vehicle":null,"mission":null,"orbit_class":"UNKNOWN","rcs_meters":null,"size_class":null,"mass_kg":null,"dimensions":null,"purposes":["comms"],"wikipedia_slug":null,"has_3d_model":false,"image_url":null,"decayed_at":null,"tle_current":{"epoch":"2026-09-20T22:00:03.000096Z","epoch_age_seconds":78942,"freshness":"FRESH","line1":"1 56770U 23078D   26263.91670139  .00055542  00000+0  37310-2 0  9996","line2":"2 56770  70.0008 232.1292 0003452 309.8662  11.6933 15.06482233  5610","mean_motion":15.06482233,"eccentricity":0.0003452,"inclination_deg":70.0008,"raan_deg":232.1292,"arg_perigee_deg":309.8662,"mean_anomaly_deg":11.6933,"bstar":0.003731,"rev_number":561,"period_min":95.586922199035,"perigee_km":544.56899377701,"apogee_km":549.35008042623,"semimajor_km":6925.0965371016,"source":"CELESTRAK","updated_at":"2026-09-21T09:00:33.485592Z"}}}